sat.trackr.live / text

‹ back to catalog

STARLINK-11102 [DTC]

NORAD 60065 · 2024-113G

PAYLOAD ACTIVE UNKNOWN

§ Identity

Operator
Country
US
Launch date
2024-06-19
Launch site
AFWTR
Launch vehicle
Mass (kg)
RCS (m²)

Purposes: comms

External: N2YO · Heavens-Above · Gunter

§ Orbital elements

Epoch: 2026-09-21T09:45:38.467008Z

Period
91.74 min
Inclination
53.1583°
Eccentricity
0.0001038
Mean motion
15.69698307 rev/d
Perigee alt
359.1 km
Apogee alt
360.5 km
Semi-major
6,737.9 km
B*
-7.5245e-6
RAAN
306.1870°
Arg perigee
81.1620°
Mean anomaly
278.9516°
Rev number
13,030

§ Raw data

STARLINK-11102 [DTC]1 60065U 24113G   26264.40669522 -.00001499  00000+0 -75245-5 0  99942 60065  53.1583 306.1870 0001038  81.1620 278.9516 15.69698307130308

JSON: /api/v1/satellites/60065 · /tle

For live sub-satellite position, see the globe view (requires WebGL).

§ Visibility from observer

Set your observer location to see the next 7 days of passes ≥ 10°. The values pass through the URL so the page stays shareable.

No JS? Fill the form by hand. The geolocation button needs JavaScript.